Regional Weather Roundup
Issued by NWS

Home | Current Version | Previous Version | Graphics & Text | Print | Product List | Glossary On
Versions: 1 2 3 4 5 6 7 8 9 10 11 12 13 14 15 16 17 18 19 20 21 22 23 24 25 26 27 28 29 30 31 32 33 34 35 36 37 38 39 40 41 42 43 44 45 46 47 48 49 50
000
ASUS43 KOAX 201802
RWRNE

WEATHER ROUNDUP FOR NEBRASKA
NATIONAL WEATHER SERVICE OMAHA NE
100 PM CDT FRI OCT 20 2017

NOTES: SATELLITE DATA IS BEING USED TO AUGMENT CLOUD COVER ABOVE
       12000 FEET.
       "FAIR" INDICATES FEW OR NO CLOUDS BELOW 12,000 FEET WITH NO
       SIGNIFICANT WEATHER AND/OR OBSTRUCTIONS TO VISIBILITY.


NEZ001>004-019>022-054>056-201900-
NEBRASKA PANHANDLE

CITY           SKY/WX    TMP DP  RH WIND       PRES   REMARKS
SCOTTSBLUFF    SUNNY     67  40  37 SE5       29.59F
6HR MIN TEMP:  36; 6HR MAX TEMP:  67;

ALLIANCE       SUNNY     65  43  44 SE10      29.59F
6HR MIN TEMP:  41; 6HR MAX TEMP:  65;

CHADRON        SUNNY     80  33  18 SW15G22   29.51F
6HR MIN TEMP:  43; 6HR MAX TEMP:  80;

GORDON         FAIR      69  46  44 SW10      29.56F
6HR MIN TEMP:  47; 6HR MAX TEMP:  69;

KIMBALL        SUNNY     74  34  22 W13       29.65F
SIDNEY         SUNNY     75  38  26 VRB3      29.62F
6HR MIN TEMP:  33; 6HR MAX TEMP:  76; 6HR PCP: TRACE;

$$

NEZ057>060-069>072-079>082-201900-
SOUTHWEST NEBRASKA

CITY           SKY/WX    TMP DP  RH WIND       PRES   REMARKS
NORTH PLATTE   SUNNY     70  53  54 S20G29    29.63F
6HR MIN TEMP:  55; 6HR MAX TEMP:  70;

IMPERIAL       SUNNY     70  52  52 S15       29.63F
6HR MIN TEMP:  52; 6HR MAX TEMP:  70;

LEXINGTON      MOSUNNY   69  53  55 S21G28    29.67F
MCCOOK         SUNNY     73  52  47 S26G35    29.65F
6HR MIN TEMP:  54; 6HR MAX TEMP:  73;

OGALLALA       CLOUDY    68  52  56 S12G17    29.62F
$$

NEZ005>010-023>029-035>040-094-201900-
NORTH CENTRAL NEBRASKA

CITY           SKY/WX    TMP DP  RH WIND       PRES   REMARKS
VALENTINE      SUNNY     74  50  42 S25G32    29.57F
6HR MIN TEMP:  52; 6HR MAX TEMP:  74;

AINSWORTH      SUNNY     68  53  58 S21       29.61F
BROKEN BOW     PTSUNNY   66  53  63 S16G24    29.66F
6HR MIN TEMP:  55; 6HR MAX TEMP:  67;

O`NEILL        MOSUNNY   70  55  57 S20G28    29.67F
ORD            CLOUDY    70  54  56 S16G31    29.67F
6HR MIN TEMP:  55; 6HR MAX TEMP:  70;

THEDFORD       MOSUNNY   70  52  51 S15G23    29.62F
$$

NEZ041-046>049-061>064-073>077-083>087-201900-
SOUTH CENTRAL NEBRASKA

CITY           SKY/WX    TMP DP  RH WIND       PRES   REMARKS
GRAND ISLAND   SUNNY     73  57  57 S22G29    29.73F
6HR MIN TEMP:  55; 6HR MAX TEMP:  73;

AURORA         SUNNY     73  54  51 S20G29    29.75F
HASTINGS       SUNNY     71  54  54 S20G31    29.74F
6HR MIN TEMP:  56; 6HR MAX TEMP:  71;

HEBRON         SUNNY     74  57  55 S25G31    29.80F
HOLDREGE       SUNNY     70  54  57 S26G38    29.69F
KEARNEY        SUNNY     72  54  53 S25G32    29.69F
YORK           MOSUNNY   72  55  56 S21G30    29.78F
$$

NEZ011>018-030>034-042>045-201900-
NORTHEAST NEBRASKA

CITY           SKY/WX    TMP DP  RH WIND       PRES   REMARKS
NORFOLK        SUNNY     73  55  53 S18G30    29.72F
6HR MIN TEMP:  56; 6HR MAX TEMP:  73;

ALBION         MOSUNNY   73  55  54 S25G35    29.72F
BLAIR          MOSUNNY   74  57  53 S24G32    29.83F
COLUMBUS       MOSUNNY   74  56  53 S23       29.77F
FREMONT        SUNNY     74  56  53 SE16G25   29.81F
TEKAMAH        SUNNY     75  55  49 S20G28    29.81F
6HR MIN TEMP:  51; 6HR MAX TEMP:  75;

WAYNE          SUNNY     72  52  49 S22G30    29.74F
$$

NEZ050>053-065>068-078-088>093-201900-
SOUTHEAST NEBRASKA

CITY           SKY/WX    TMP DP  RH WIND       PRES   REMARKS
LINCOLN        CLOUDY    76  57  51 S28G33    29.81F
6HR MIN TEMP:  57; 6HR MAX TEMP:  76;

OMAHA EPPLEY   PTSUNNY   74  56  53 S22G29    29.84F
6HR MIN TEMP:  58; 6HR MAX TEMP:  74;

BEATRICE       SUNNY     74  59  58 S24G32    29.83F
FALLS CITY     SUNNY     74  57  55 S20G30    29.89F
6HR MIN TEMP:  57; 6HR MAX TEMP:  74;

NEBRASKA CITY  SUNNY     74  60  61 S23       29.87F
PLATTSMOUTH    MOSUNNY   75  58  55 S17G25    29.85F
$$

NEZ044-045-051>053-067-201900-
OMAHA AREA

CITY           SKY/WX    TMP DP  RH WIND       PRES   REMARKS
OMAHA EPPLEY   PTSUNNY   74  56  53 S22G29    29.84F
6HR MIN TEMP:  58; 6HR MAX TEMP:  74;

BLAIR          MOSUNNY   74  57  53 S24G32    29.83F
FREMONT        SUNNY     74  56  53 SE16G25   29.81F
MILLARD        SUNNY     75  59  56 SE20G26   29.83F
OFFUTT AFB     MOSUNNY   74  56  54 SE15G24   29.84F
PLATTSMOUTH    MOSUNNY   75  58  55 S17G25    29.85F
WAHOO          FAIR      74  55  52 S23G32    29.81F
$$




USA.gov is the U.S. government's official web portal to all federal, state and local government web resources and services.